CAPE
1 2 3 4 4 3 2 1 1 1 1 0 0 1 2 4 0 0 0 0 0 43 0 0 0 0 269 354 417 89 0 5 86 0 0 0 241 8 13 100 167 99 76 59 268
1 2 3 5 3 3 2 1 1 1 1 0 1 1 2 3 0 0 0 109 127 503 0 38 220 250 351 231 20 0 0 68 6 0 0 43 151 72 110 77 70 159 194 320 195
1 1 1 1 7 4 2 2 1 1 1 0 0 0 1 1 0 0 171 107 438 169 0 326 460 671 551 20 69 1 20 27 56 4 11 72 0 34 102 24 28 194 280 258 116
1 1 1 1 1 2 5 2 1 1 1 1 0 0 1 0 0 2 791 549 372 0 496 608 668 100 194 179 36 12 71 107 148 107 149 121 33 65 122 138 20 110 279 189 81
1 1 1 1 2 1 5 2 1 0 1 0 0 0 0 0 0 432 967 967 0 0 0 528 488 161 583 490 45 110 228 179 136 60 70 58 46 0 190 0 106 141 219 147 69
1 1 1 1 1 1 3 1 1 0 1 1 0 0 0 0 0 0 0 0 0 0 0 220 223 227 77 11 39 168 162 42 35 96 159 84 10 7 0 63 155 154 167 121 82
1 1 0 1 1 3 0 1 1 0 1 0 0 0 0 0 0 0 0 0 0 0 0 19 273 258 125 207 29 305 97 76 134 154 6 1 0 0 0 47 162 123 158 127 131
1 1 3 2 0 1 2 2 1 1 0 0 0 0 0 0 0 0 0 0 0 0 7 309 405 607 81 133 516 403 113 4 42 99 0 0 0 0 0 5 35 84 150 113 112
1 2 3 4 3 5 4 1 0 0 0 0 0 0 0 0 0 0 0 0 0 0 0 336 206 617 377 461 256 228 27 42 78 25 1 0 0 0 0 0 0 0 0 1 0
3 7 9 9 8 5 2 0 0 0 0 0 0 0 0 0 0 0 0 0 0 0 195 29 41 128 413 314 98 35 165 35 26 38 23 0 0 0 0 0 0 0 0 0 0
7 8 3 1 1 1 0 0 0 0 0 0 0 0 0 0 0 0 0 0 0 0 0 0 0 13 63 322 338 91 35 23 0 4 42 10 0 0 0 0 0 0 0 0 0
6 1 1 1 2 4 0 0 0 0 0 0 0 0 0 0 0 0 0 0 0 0 0 0 0 0 239 463 397 235 135 95 1 0 6 0 20 0 0 0 0 0 0 0 0
1 1 1 2 0 0 0 0 0 0 0 0 0 0 0 0 0 0 0 0 0 0 0 0 39 41 159 114 176 151 44 6 0 0 0 0 0 0 0 0 0 0 0 0 0
1 1 2 1 0 0 0 0 0 0 0 0 0 0 0 0 0 0 0 0 0 0 0 0 0 223 111 92 96 34 0 0 0 0 0 0 2 0 0 0 0 0 0 0 0
1 2 7 1 0 0 0 0 0 0 0 0 0 0 0 0 0 0 0 0 0 1 0 8 112 222 151 151 80 68 49 13 0 0 0 0 0 0 0 0 0 0 0 0 0
1 5 9 0 0 0 0 0 0 0 0 0 0 0 0 0 0 0 0 0 0 80 3 22 75 159 155 55 89 95 25 0 0 0 0 0 0 0 0 0 0 0 0 0 0
1 2 6 1 0 0 0 0 0 0 0 0 0 0 0 0 0 0 0 0 0 0 7 3 25 13 162 52 21 32 0 1 0 0 0 0 0 0 0 0 0 0 0 0 0
0 1 0 0 0 0 0 0 0 0 0 0 0 0 0 0 0 0 0 0 0 0 0 34 16 0 24 64 61 43 1 0 0 0 0 0 0 0 0 0 0 0 0 0 0
1 0 0 0 0 0 0 0 0 0 0 0 0 0 0 0 0 0 0 0 0 0 27 0 2 0 9 65 20 10 0 0 0 0 0 0 0 2 0 6 0 0 0 3 0
1 0 0 0 0 0 0 0 0 0 0 0 0 0 0 0 0 0 0 0 0 0 0 0 46 0 5 10 0 16 0 0 0 0 0 0 0 3 0 15 27 8 0 33 4
0 0 0 0 0 0 0 0 0 0 0 0 0 0 0 0 0 0 0 0 0 0 0 0 0 0 44 7 4 1 0 0 0 0 0 0 0 0 0 0 53 101 59 83 159
0 0 0 0 0 0 0 0 0 0 0 0 0 0 0 0 0 0 0 0 0 0 0 0 0 0 60 0 0 1 7 0 15 0 0 0 0 0 0 0 23 99 113 493 99
0 0 0 0 0 0 0 0 0 0 0 0 0 0 0 0 0 0 0 0 0 0 0 0 0 0 0 0 0 0 0 0 0 0 0 0 0 0 0 0 0 213 599 163 27
0 0 0 0 0 0 0 0 0 0 0 0 0 0 0 0 0 0 0 0 0 0 0 0 0 0 0 0 0 0 0 0 1 0 0 0 0 0 0 0 0 63 509 22 1
0 0 0 0 0 0 0 0 0 0 0 0 0 0 0 0 0 0 0 0 0 0 0 0 0 0 0 0 15 16 11 0 0 0 0 0 0 0 0 0 0 537 31 0 0
0 0 0 0 0 0 0 0 0 0 0 0 0 0 0 0 0 0 0 0 0 0 0 0 0 0 0 0 0 10 12 0 0 0 0 0 0 0 0 276 596 309 2 0 0
0 0 0 0 0 0 0 0 0 0 0 0 0 0 0 0 0 0 0 0 0 0 0 0 0 0 0 0 6 8 0 5 0 0 0 0 0 248 514 571 633 269 43 28 28
CIN
-0 -0 -0 -0 -0 -0 -0 -0 -0 -0 -0 -0 -0 -0 -0 -0 -0 -0 -0 -0 -0 -158 -1 -0 -0 -0 -335 -327 -331 -490 -0 -69 -206 -0 -0 -0 -96 -144 -276 -299 -268 -342 -490 -591 -439
-0 -0 -0 -0 -0 -0 -0 -0 -0 -0 -0 -0 -0 -0 -0 -0 -0 -0 -0 -513 -588 -633 -0 -77 -266 -296 -300 -332 -543 -0 -0 -205 -197 -0 -0 -286 -169 -192 -218 -249 -356 -468 -527 -501 -492
-0 -0 -0 -0 -0 -0 -0 -0 -0 -0 -0 -0 -0 -0 -0 -0 -0 -0 -576 -767 -694 -743 -0 -263 -236 -200 -195 -382 -436 -60 -222 -350 -315 -338 -366 -270 -0 -257 -244 -280 -385 -478 -538 -522 -557
-0 -0 -0 -0 -0 -0 -0 -0 -0 -0 -0 -0 -0 -0 -0 -0 -0 -35 -562 -698 -711 -0 -255 -228 -193 -268 -222 -237 -403 -233 -341 -370 -325 -337 -309 -271 -314 -238 -284 -224 -409 -583 -617 -613 -612
-0 -0 -0 -0 -0 -0 -0 -0 -0 -0 -0 -0 -0 -0 -0 -0 -0 -363 -523 -582 -0 -0 -0 -183 -161 -233 -140 -201 -279 -262 -271 -345 -376 -438 -416 -388 -347 -0 -294 -0 -510 -593 -591 -626 -664
-0 -0 -0 -0 -0 -0 -0 -0 -0 -0 -0 -0 -0 -0 -0 -0 -0 -0 -0 -0 -0 -0 -0 -222 -225 -212 -242 -175 -195 -343 -377 -420 -431 -369 -347 -288 -155 -201 -0 -610 -555 -594 -624 -638 -667
-0 -0 -0 -0 -0 -0 -0 -0 -0 -0 -0 -0 -0 -0 -0 -0 -0 -0 -0 -0 -0 -0 -0 -79 -233 -177 -219 -245 -386 -336 -310 -286 -283 -289 -255 -18 -0 -0 -0 -650 -569 -582 -609 -615 -614
-0 -0 -0 -0 -0 -0 -0 -0 -0 -0 -0 -0 -0 -0 -0 -0 -0 -0 -0 -0 -0 -0 -65 -234 -189 -182 -344 -368 -208 -279 -347 -56 -244 -283 -0 -0 -0 -0 -0 -578 -627 -598 -560 -598 -641
-0 -0 -0 -0 -0 -0 -0 -0 -0 -0 -0 -0 -0 -0 -0 -0 -0 -0 -0 -0 -0 -0 -0 -189 -229 -163 -256 -192 -219 -276 -166 -259 -156 -249 -20 -0 -0 -0 -0 -0 -0 -0 -0 -148 -0
-0 -0 -0 -0 -0 -0 -0 -0 -0 -0 -0 -0 -0 -0 -0 -0 -0 -0 -0 -0 -0 -0 -211 -174 -344 -178 -224 -170 -109 -118 -144 -242 -189 -171 -115 -0 -0 -0 -0 -0 -0 -0 -0 -0 -0
-0 -0 -0 -0 -0 -0 -0 -0 -0 -0 -0 -0 -0 -0 -0 -0 -0 -0 -0 -0 -0 -0 -0 -0 -0 -233 -162 -103 -129 -201 -217 -183 -0 -184 -192 -204 -0 -0 -0 -0 -0 -0 -0 -0 -0
-0 -0 -0 -0 -0 -0 -0 -0 -0 -0 -0 -0 -0 -0 -0 -0 -0 -0 -0 -0 -0 -0 -0 -0 -0 -0 -122 -109 -84 -116 -179 -218 -40 -0 -86 -0 -192 -0 -0 -0 -0 -0 -0 -0 -0
-0 -0 -0 -0 -0 -0 -0 -0 -0 -0 -0 -0 -0 -0 -0 -0 -0 -0 -0 -0 -0 -0 -0 -0 -141 -93 -115 -85 -102 -137 -228 -184 -0 -0 -0 -0 -0 -0 -0 -0 -0 -0 -0 -0 -0
-0 -0 -0 -0 -0 -0 -0 -0 -0 -0 -0 -0 -0 -0 -0 -0 -0 -0 -0 -0 -0 -0 -0 -0 -0 -135 -118 -86 -137 -168 -0 -0 -0 -0 -0 -0 -56 -0 -0 -0 -0 -0 -0 -0 -0
-0 -0 -0 -0 -0 -0 -0 -0 -0 -0 -0 -0 -0 -0 -0 -0 -0 -0 -0 -0 -0 -8 -0 -41 -121 -126 -140 -177 -198 -172 -235 -218 -0 -0 -0 -0 -0 -0 -0 -0 -0 -0 -0 -0 -0
-0 -0 -0 -0 -0 -0 -0 -0 -0 -0 -0 -0 -0 -0 -0 -0 -0 -0 -0 -0 -0 -117 -44 -57 -280 -138 -119 -148 -175 -211 -214 -0 -0 -0 -0 -0 -0 -0 -0 -0 -0 -0 -0 -0 -0
-0 -0 -0 -0 -0 -0 -0 -0 -0 -0 -0 -0 -0 -0 -0 -0 -0 -0 -0 -0 -0 -0 -28 -22 -110 -93 -188 -210 -275 -233 -0 -44 -0 -0 -0 -0 -0 -0 -0 -0 -0 -0 -0 -0 -0
-0 -0 -0 -0 -0 -0 -0 -0 -0 -0 -0 -0 -0 -0 -0 -0 -0 -0 -0 -0 -0 -0 -0 -67 -17 -0 -234 -146 -129 -211 -37 -5 -0 -0 -0 -0 -0 -0 -0 -0 -0 -0 -0 -0 -0
-1 -0 -0 -0 -0 -0 -0 -0 -0 -0 -0 -0 -0 -0 -0 -0 -0 -0 -0 -0 -0 -0 -56 -0 -5 -0 -247 -319 -199 -242 -0 -0 -0 -0 -0 -0 -0 -21 -0 -422 -0 -0 -0 -356 -82
-0 -0 -0 -0 -0 -0 -0 -0 -0 -0 -0 -0 -0 -0 -0 -0 -0 -0 -0 -0 -0 -0 -0 -0 -88 -0 -339 -362 -0 -207 -0 -0 -0 -0 -0 -0 -0 -124 -27 -299 -434 -212 -83 -648 -703
-0 -0 -0 -0 -0 -0 -0 -0 -0 -0 -0 -0 -0 -0 -0 -0 -0 -0 -0 -0 -0 -0 -0 -0 -0 -0 -242 -205 -56 -86 -0 -0 -0 -0 -0 -0 -0 -0 -0 -0 -434 -612 -803 -805 -764
-0 -0 -0 -0 -0 -0 -0 -0 -0 -0 -0 -0 -0 -0 -0 -0 -0 -0 -0 -0 -0 -0 -0 -0 -0 -0 -142 -0 -0 -297 -193 -0 -66 -0 -0 -0 -0 -0 -0 -0 -341 -523 -783 -845 -1101
-0 -0 -0 -0 -0 -0 -0 -0 -0 -0 -0 -0 -0 -0 -0 -0 -0 -0 -0 -0 -0 -0 -0 -0 -0 -0 -0 -0 -0 -0 -0 -0 -0 -0 -0 -0 -0 -0 -0 -0 -0 -321 -660 -953 -1241
-0 -0 -0 -0 -0 -0 -0 -0 -0 -0 -0 -0 -0 -0 -0 -0 -0 -0 -0 -0 -0 -0 -0 -0 -0 -0 -0 -0 -0 -0 -0 -0 -35 -0 -0 -0 -0 -0 -0 -0 -0 -582 -670 -1026 -646
-0 -0 -0 -0 -0 -0 -0 -0 -0 -0 -0 -0 -0 -0 -0 -0 -0 -0 -0 -0 -0 -0 -0 -0 -0 -0 -0 -0 -91 -114 -93 -0 -0 -0 -0 -0 -0 -0 -0 -0 -0 -604 -645 -0 -0
-0 -0 -0 -0 -0 -0 -0 -0 -0 -0 -0 -0 -0 -0 -0 -0 -0 -0 -0 -0 -0 -0 -0 -0 -0 -0 -0 -0 -0 -143 -146 -0 -0 -0 -0 -0 -0 -0 -0 -621 -555 -651 -552 -334 -0
-0 -0 -0 -0 -0 -0 -0 -0 -0 -0 -0 -0 -0 -0 -0 -0 -0 -0 -0 -0 -0 -0 -0 -0 -0 -0 -0 -0 -60 -75 -0 -202 -18 -0 -0 -0 -0 -501 -491 -433 -493 -679 -739 -724 -746
Wind_Speed
19 19 19 19 18 19 19 19 19 18 18 18 19 18 17 16 16 3 7 11 7 6 10 9 6 5 5 4 3 3 3 1 1 4 5 4 2 3 4 8 2 3 6 10 20
19 19 19 20 20 19 19 19 19 19 20 19 19 18 16 16 3 6 10 8 8 11 8 8 6 10 3 2 2 4 2 5 4 3 2 3 4 7 5 2 3 8 13 22 19
19 19 20 20 20 20 20 19 19 19 20 20 19 19 16 11 5 6 2 13 10 9 5 4 6 3 4 2 4 4 4 3 4 3 1 3 2 5 9 5 7 12 19 21 20
19 20 20 20 21 21 21 20 20 20 19 20 19 20 18 2 4 1 3 13 10 4 6 6 4 4 3 5 3 2 5 3 3 1 3 2 1 4 9 7 9 19 25 22 20
20 20 20 21 21 21 21 21 21 21 20 18 18 17 7 3 11 3 6 9 8 5 7 5 3 5 4 3 4 2 2 4 6 6 7 4 6 5 7 5 14 19 19 19 16
20 20 21 21 22 22 22 22 23 22 20 18 15 12 3 4 3 3 8 5 6 5 4 5 6 4 4 1 0 2 5 8 5 5 4 5 2 9 3 13 16 20 17 16 16
20 20 20 21 22 22 23 24 24 24 22 18 11 3 2 17 4 6 7 5 3 5 4 4 5 3 4 3 3 2 5 7 2 1 1 8 5 3 8 12 16 16 14 14 13
20 20 20 20 21 23 24 25 26 25 20 11 6 3 10 5 1 7 5 0 4 2 4 5 6 5 4 3 3 3 5 4 4 6 3 4 4 1 9 17 13 13 13 14 14
21 20 21 21 22 23 25 27 26 11 4 11 5 3 11 5 4 6 9 7 6 3 4 4 3 2 0 1 7 5 2 3 8 2 2 5 0 5 4 11 12 11 12 13 12
21 20 21 21 21 22 26 26 10 5 2 3 3 2 5 5 4 2 3 9 6 7 4 4 4 1 3 4 5 3 2 3 5 4 5 3 3 8 7 9 12 9 9 9 13
20 22 22 23 23 22 16 5 4 1 2 10 6 5 4 6 4 3 5 8 8 4 6 3 3 8 12 9 5 4 1 4 4 4 1 2 3 9 11 6 8 9 9 10 12
22 23 23 24 24 22 1 1 7 3 9 12 14 11 10 4 6 3 6 7 6 5 6 4 9 6 5 5 6 2 7 8 7 7 3 3 6 8 14 13 16 15 14 16 12
23 22 23 25 26 2 2 5 2 3 2 10 8 8 7 11 10 9 7 4 8 7 6 8 4 11 9 5 9 4 5 5 6 3 1 2 6 4 8 6 12 14 16 14 17
23 22 22 25 2 4 5 2 5 2 3 9 5 9 7 10 7 9 10 8 3 11 10 6 6 11 7 9 3 3 6 7 3 3 4 2 5 6 6 14 16 17 15 18 17
24 21 17 11 8 3 0 4 5 2 4 3 4 1 2 11 7 7 7 3 10 7 8 8 8 12 12 9 13 9 5 6 2 1 1 1 4 8 1 5 14 17 18 18 20
24 20 16 3 3 9 8 7 3 7 8 5 4 4 5 3 3 5 6 3 5 7 2 6 1 7 7 9 16 4 4 6 3 2 1 3 4 6 6 8 5 11 17 21 18
27 24 12 4 6 4 4 2 5 4 5 4 1 3 3 6 4 5 8 7 8 7 4 1 2 1 5 7 2 3 7 1 1 0 6 3 3 10 6 7 6 9 14 19 18
32 28 5 11 5 6 3 5 4 5 6 5 3 2 6 6 6 3 7 8 3 7 5 8 4 7 5 7 8 6 8 7 6 6 4 3 6 8 7 8 11 12 10 11 15
27 2 2 4 8 3 5 3 9 7 3 6 5 7 6 2 6 4 6 9 8 7 8 6 6 1 3 3 3 6 4 4 7 3 2 3 7 9 6 8 4 9 9 13 15
5 4 3 2 9 2 6 6 4 4 4 4 4 2 5 7 2 6 7 6 7 8 6 8 3 4 4 5 1 5 7 5 3 5 4 4 5 6 6 8 7 6 7 6 7
1 2 5 2 2 5 5 8 5 7 4 3 1 4 2 3 1 2 6 5 7 9 7 7 5 2 6 7 10 3 2 5 6 5 5 1 7 9 8 5 7 6 2 2 4
3 5 3 1 5 1 3 4 3 3 3 3 1 6 6 3 4 3 7 9 9 11 11 10 7 6 6 2 1 2 6 7 6 3 1 2 9 1 5 4 3 3 6 7 8
3 3 2 3 4 3 6 4 4 4 5 3 3 6 4 1 4 4 4 4 5 8 11 8 1 4 4 5 2 2 4 4 5 4 7 5 6 4 6 4 6 8 5 7 10
2 3 4 4 0 0 3 3 4 4 4 3 5 1 1 3 6 6 3 4 3 6 3 9 6 12 12 7 7 5 5 5 6 5 5 10 16 9 8 6 7 5 9 10 11
5 2 1 4 3 3 2 2 3 5 4 4 2 6 5 4 2 6 6 5 4 2 3 7 9 8 7 10 9 9 11 15 12 15 11 19 17 19 8 7 8 11 11 13 10
4 5 5 4 4 5 0 1 1 5 2 5 3 7 6 8 10 4 2 3 6 2 3 2 3 6 15 9 12 8 15 16 20 15 9 12 11 8 1 7 9 15 17 16 15
3 2 1 4 4 3 2 3 4 9 7 8 6 7 7 9 4 14 10 7 7 5 4 4 4 1 8 6 7 5 9 11 8 10 12 12 21 5 5 9 15 17 18 20 18
Wind_Direction
352 349 349 346 346 346 345 344 341 340 336 331 326 326 326 325 314 158 242 218 192 182 156 133 156 190 141 116 138 105 58 67 354 9 295 340 106 82 31 128 158 109 131 139 140
350 346 347 343 343 344 343 340 337 336 332 328 326 324 327 331 306 245 247 189 218 150 145 159 150 142 93 87 43 106 118 208 198 227 212 285 164 147 107 213 77 75 92 126 141
347 345 345 341 341 339 339 336 333 333 329 325 325 323 325 325 317 246 211 191 179 175 129 92 120 105 109 131 189 142 195 183 265 252 200 320 140 139 121 229 209 160 144 145 149
343 343 341 340 338 335 334 331 330 327 324 321 322 323 320 307 286 48 179 174 183 171 108 127 126 103 163 167 211 163 237 234 265 214 307 225 190 145 163 203 167 158 155 150 159
342 341 339 337 334 333 329 326 323 320 318 317 319 324 339 348 253 183 166 147 131 159 158 141 151 133 206 170 185 127 224 229 241 262 239 183 213 184 201 78 125 138 149 154 158
342 340 337 334 333 331 325 321 317 314 312 309 310 320 271 267 271 167 131 122 153 165 150 127 175 206 114 163 196 297 275 269 272 251 223 148 214 142 86 126 131 145 156 162 165
339 337 335 335 331 326 321 318 313 311 305 296 291 268 244 236 74 88 125 159 218 151 146 132 155 158 134 158 250 194 1 333 202 341 207 156 94 215 140 134 142 151 159 167 176
336 336 334 329 325 321 318 313 310 308 299 275 212 204 246 246 128 241 170 62 256 72 93 129 131 103 127 239 196 48 56 6 300 3 332 108 296 42 151 138 151 154 170 176 185
335 330 327 325 323 321 318 311 308 305 328 133 122 177 264 312 254 240 159 167 121 55 98 119 53 75 1 134 28 27 313 334 335 348 275 71 291 143 155 143 152 164 177 185 184
330 323 323 323 323 323 319 306 283 301 169 206 254 6 270 243 218 176 159 147 140 124 69 62 63 45 63 52 196 226 19 310 307 308 28 14 117 149 169 160 163 171 184 193 193
328 327 328 326 325 326 330 358 16 6 238 194 200 243 298 286 294 168 147 113 117 110 149 203 135 214 203 181 157 147 210 265 289 277 355 243 148 183 174 158 171 188 196 206 211
330 330 329 326 324 321 4 56 113 186 305 239 244 257 273 37 322 285 139 123 139 160 112 73 229 217 226 240 221 344 317 284 267 270 116 226 267 184 185 197 192 195 203 210 209
331 331 329 325 318 12 298 243 40 29 230 285 207 201 210 147 215 247 160 158 138 144 174 156 230 154 177 240 257 255 218 278 244 329 358 51 300 185 210 206 211 210 212 214 209
329 329 332 330 80 327 263 169 334 229 26 272 250 263 163 145 241 194 191 151 132 173 154 206 186 157 200 208 151 312 219 222 252 137 203 102 259 288 208 210 208 215 204 211 211
326 326 327 334 296 277 344 346 295 85 330 234 211 125 226 166 153 220 177 70 154 149 119 232 164 166 166 207 165 221 160 167 220 161 38 276 102 270 132 220 224 219 214 215 208
323 321 322 321 223 245 323 330 86 49 254 319 147 163 131 266 263 109 151 119 146 120 61 184 108 169 188 166 180 131 90 47 56 128 187 267 149 268 196 207 212 224 220 219 209
320 313 292 238 227 140 300 60 55 161 327 306 25 170 186 171 250 162 154 160 152 113 142 52 216 190 140 109 216 114 94 329 281 321 213 228 118 244 242 238 219 216 220 222 213
321 311 265 204 229 270 344 65 162 236 248 299 329 272 178 160 242 167 129 166 197 122 132 154 264 171 182 187 173 175 155 168 199 184 212 129 227 250 197 249 253 246 240 212 204
322 334 254 242 202 111 89 119 201 209 281 327 320 57 349 322 174 148 183 180 175 163 157 135 239 64 106 61 106 180 173 163 100 342 61 242 288 290 251 266 263 252 204 195 190
319 325 294 21 152 100 84 227 231 220 324 19 56 28 19 324 15 153 184 192 184 172 156 204 183 194 158 113 199 179 161 74 354 172 214 279 276 244 277 279 294 268 221 176 158
37 34 328 60 98 49 163 226 262 239 224 349 347 340 341 290 297 259 215 240 190 187 141 134 120 227 118 189 179 149 166 60 129 142 157 236 259 214 221 223 261 263 167 153 124
335 48 327 38 66 13 164 209 250 289 34 331 248 225 220 304 292 274 215 219 188 153 156 197 153 166 205 270 224 157 167 154 132 250 173 168 268 243 222 185 158 349 44 47 51
16 288 340 18 83 347 302 285 240 233 259 224 262 198 216 224 330 240 259 242 198 152 172 173 173 101 12 354 14 207 209 140 91 120 190 203 259 276 151 166 160 157 100 76 64
11 12 338 48 18 254 6 305 306 318 260 210 254 221 354 264 221 272 282 300 283 178 184 139 151 182 211 201 153 194 199 199 135 129 233 229 257 265 252 161 218 140 128 113 105
15 18 128 322 347 343 270 288 325 335 328 317 263 224 188 247 280 222 231 275 278 251 104 144 186 170 193 181 170 182 190 187 198 207 196 243 239 246 248 256 180 139 122 119 122
58 14 347 290 308 309 271 111 296 334 268 291 211 335 293 227 207 270 286 205 233 253 97 70 275 162 198 178 177 197 210 194 206 219 244 259 258 222 155 113 147 149 145 143 156
341 342 86 291 335 332 270 39 349 333 252 251 338 339 281 240 270 261 227 258 244 188 206 118 110 90 218 171 125 257 195 185 199 205 205 225 245 138 173 196 176 158 160 158 166